Time,TemperatureF,DewpointF,PressureIn,WindDirection,WindDirectionDegrees,WindSpeedMPH,WindSpeedGustMPH,Humidity,HourlyPrecipIn,Conditions,Clouds,dailyrainin,SolarRadiationWatts/m^2,SoftwareType,DateUTC
2013-07-05 00:00:00,62.0,60.0,-100.00,WNW,292,1.0,-999.0,92,-99.99,,,-99.99,0.000000,,2013-07-05 04:00:00,
2013-07-05 00:43:00,62.0,60.0,-100.00,WNW,292,1.0,-999.0,92,-99.99,,,-99.99,0.000000,,2013-07-05 04:43:00,
2013-07-05 00:53:00,62.0,60.0,-100.00,WNW,292,1.0,-999.0,92,-99.99,,,-99.99,0.000000,,2013-07-05 04:53:00,
2013-07-05 01:00:00,61.0,59.0,-100.00,NNW,337,1.0,-999.0,93,-99.99,,,-99.99,0.000000,,2013-07-05 05:00:00,
2013-07-05 01:43:00,61.0,59.0,-100.00,NNW,337,1.0,-999.0,93,-99.99,,,-99.99,0.000000,,2013-07-05 05:43:00,
2013-07-05 01:52:00,61.0,59.0,-100.00,NNW,337,1.0,-999.0,93,-99.99,,,-99.99,0.000000,,2013-07-05 05:52:00,
2013-07-05 02:00:00,61.0,59.0,-100.00,NNW,337,0.0,-999.0,94,-99.99,,,-99.99,0.000000,,2013-07-05 06:00:00,
2013-07-05 02:44:00,61.0,59.0,-100.00,NNW,337,0.0,-999.0,94,-99.99,,,-99.99,0.000000,,2013-07-05 06:44:00,
2013-07-05 02:53:00,61.0,59.0,-100.00,NNW,337,0.0,-999.0,94,-99.99,,,-99.99,0.000000,,2013-07-05 06:53:00,
2013-07-05 03:00:00,60.0,59.0,-100.00,NNW,337,0.0,-999.0,95,-99.99,,,-99.99,0.000000,,2013-07-05 07:00:00,
2013-07-05 03:43:00,60.0,59.0,-100.00,NNW,337,0.0,-999.0,95,-99.99,,,-99.99,0.000000,,2013-07-05 07:43:00,
2013-07-05 03:53:00,60.0,59.0,-100.00,NNW,337,0.0,-999.0,95,-99.99,,,-99.99,0.000000,,2013-07-05 07:53:00,
2013-07-05 04:00:00,60.0,59.0,-100.00,WNW,292,0.0,-999.0,95,-99.99,,,-99.99,0.000000,,2013-07-05 08:00:00,
2013-07-05 04:44:00,60.0,59.0,-100.00,WNW,292,0.0,-999.0,95,-99.99,,,-99.99,0.000000,,2013-07-05 08:44:00,
2013-07-05 04:57:00,60.0,59.0,-100.00,WNW,292,0.0,-999.0,95,-99.99,,,-99.99,0.000000,,2013-07-05 08:57:00,
2013-07-05 05:00:00,60.0,59.0,-100.00,NW,315,0.0,-999.0,96,-99.99,,,-99.99,0.000000,,2013-07-05 09:00:00,
2013-07-05 05:48:00,60.0,59.0,-100.00,NW,315,0.0,-999.0,96,-99.99,,,-99.99,0.000000,,2013-07-05 09:48:00,
2013-07-05 05:57:00,60.0,59.0,-100.00,NW,315,0.0,-999.0,96,-99.99,,,-99.99,0.000000,,2013-07-05 09:57:00,
2013-07-05 06:00:00,59.0,58.0,-100.00,ESE,112,0.0,-999.0,96,-99.99,,,-99.99,0.000000,,2013-07-05 10:00:00,
2013-07-05 06:58:00,59.0,58.0,-100.00,ESE,112,0.0,-999.0,96,-99.99,,,-99.99,0.000000,,2013-07-05 10:58:00,
2013-07-05 07:00:00,60.0,59.0,-100.00,SE,135,0.0,-999.0,96,-99.99,,,-99.99,17.400000,,2013-07-05 11:00:00,
2013-07-05 07:51:00,60.0,59.0,-100.00,SE,135,0.0,-999.0,96,-99.99,,,-99.99,17.400000,,2013-07-05 11:51:00,
2013-07-05 08:00:00,61.0,61.0,-100.00,ESE,112,1.0,-999.0,96,-99.99,,,-99.99,45.240002,,2013-07-05 12:00:00,
2013-07-05 08:50:00,61.0,61.0,-100.00,ESE,112,1.0,-999.0,96,-99.99,,,-99.99,45.240002,,2013-07-05 12:50:00,
2013-07-05 09:00:00,65.0,63.0,-100.00,SSE,157,1.0,-999.0,93,-99.99,,,-99.99,185.600006,,2013-07-05 13:00:00,
2013-07-05 09:50:00,65.0,63.0,-100.00,SSE,157,1.0,-999.0,93,-99.99,,,-99.99,185.600006,,2013-07-05 13:50:00,
2013-07-05 09:58:00,65.0,63.0,-100.00,SSE,157,1.0,-999.0,93,-99.99,,,-99.99,185.600006,,2013-07-05 13:58:00,
2013-07-05 10:00:00,69.0,63.0,-100.00,SSW,202,2.0,-999.0,80,-99.99,,,-99.99,285.359985,,2013-07-05 14:00:00,
2013-07-05 10:47:00,69.0,63.0,-100.00,SSW,202,2.0,-999.0,80,-99.99,,,-99.99,285.359985,,2013-07-05 14:47:00,
2013-07-05 10:58:00,69.0,63.0,-100.00,SSW,202,2.0,-999.0,80,-99.99,,,-99.99,285.359985,,2013-07-05 14:58:00,
2013-07-05 11:43:00,73.0,62.0,-100.00,SW,225,4.0,-999.0,68,-99.99,,,-99.99,448.920013,,2013-07-05 15:43:00,
2013-07-05 12:00:00,76.0,61.0,-100.00,SSW,202,6.0,-999.0,60,-99.99,,,-99.99,613.640015,,2013-07-05 16:00:00,
2013-07-05 12:44:00,76.0,61.0,-100.00,SSW,202,6.0,-999.0,60,-99.99,,,-99.99,613.640015,,2013-07-05 16:44:00,
2013-07-05 12:53:00,76.0,61.0,-100.00,SSW,202,6.0,-999.0,60,-99.99,,,-99.99,613.640015,,2013-07-05 16:53:00,
2013-07-05 13:00:00,78.0,60.0,-100.00,SSW,202,6.0,-999.0,54,-99.99,,,-99.99,714.559998,,2013-07-05 17:00:00,
2013-07-05 13:43:00,78.0,60.0,-100.00,SSW,202,6.0,-999.0,54,-99.99,,,-99.99,714.559998,,2013-07-05 17:43:00,
2013-07-05 13:53:00,78.0,60.0,-100.00,SSW,202,6.0,-999.0,54,-99.99,,,-99.99,714.559998,,2013-07-05 17:53:00,
2013-07-05 14:00:00,78.0,61.0,-100.00,SSW,202,5.0,-999.0,55,-99.99,,,-99.99,472.119995,,2013-07-05 18:00:00,
2013-07-05 14:43:00,78.0,61.0,-100.00,SSW,202,5.0,-999.0,55,-99.99,,,-99.99,472.119995,,2013-07-05 18:43:00,
2013-07-05 14:53:00,78.0,61.0,-100.00,SSW,202,5.0,-999.0,55,-99.99,,,-99.99,472.119995,,2013-07-05 18:53:00,
2013-07-05 15:00:00,80.0,60.0,-100.00,SSW,202,6.0,-999.0,51,-99.99,,,-99.99,719.200012,,2013-07-05 19:00:00,
2013-07-05 15:43:00,80.0,60.0,-100.00,SSW,202,6.0,-999.0,51,-99.99,,,-99.99,719.200012,,2013-07-05 19:43:00,
2013-07-05 15:53:00,80.0,60.0,-100.00,SSW,202,6.0,-999.0,51,-99.99,,,-99.99,719.200012,,2013-07-05 19:53:00,
2013-07-05 16:00:00,81.0,60.0,-100.00,South,180,7.0,-999.0,49,-99.99,,,-99.99,676.280029,,2013-07-05 20:00:00,
2013-07-05 16:43:00,81.0,60.0,-100.00,South,180,7.0,-999.0,49,-99.99,,,-99.99,676.280029,,2013-07-05 20:43:00,
2013-07-05 16:53:00,81.0,60.0,-100.00,South,180,7.0,-999.0,49,-99.99,,,-99.99,676.280029,,2013-07-05 20:53:00,
2013-07-05 17:00:00,81.0,59.0,-100.00,SSW,202,7.0,-999.0,47,-99.99,,,-99.99,604.359985,,2013-07-05 21:00:00,
2013-07-05 17:43:00,81.0,59.0,-100.00,SSW,202,7.0,-999.0,47,-99.99,,,-99.99,604.359985,,2013-07-05 21:43:00,
2013-07-05 17:53:00,81.0,59.0,-100.00,SSW,202,7.0,-999.0,47,-99.99,,,-99.99,604.359985,,2013-07-05 21:53:00,
2013-07-05 18:00:00,81.0,59.0,-100.00,South,180,8.0,-999.0,47,-99.99,,,-99.99,479.079987,,2013-07-05 22:00:00,
2013-07-05 18:43:00,81.0,59.0,-100.00,South,180,8.0,-999.0,47,-99.99,,,-99.99,479.079987,,2013-07-05 22:43:00,
2013-07-05 18:53:00,81.0,59.0,-100.00,South,180,8.0,-999.0,47,-99.99,,,-99.99,479.079987,,2013-07-05 22:53:00,
2013-07-05 19:00:00,81.0,60.0,-100.00,South,180,8.0,-999.0,48,-99.99,,,-99.99,338.720001,,2013-07-05 23:00:00,
2013-07-05 19:43:00,81.0,60.0,-100.00,South,180,8.0,-999.0,48,-99.99,,,-99.99,338.720001,,2013-07-05 23:43:00,
2013-07-05 19:53:00,81.0,60.0,-100.00,South,180,8.0,-999.0,48,-99.99,,,-99.99,338.720001,,2013-07-05 23:53:00,
2013-07-05 20:00:00,79.0,60.0,-100.00,SSW,202,7.0,-999.0,51,-99.99,,,-99.99,194.880005,,2013-07-06 00:00:00,
2013-07-05 20:43:00,79.0,60.0,-100.00,SSW,202,7.0,-999.0,51,-99.99,,,-99.99,194.880005,,2013-07-06 00:43:00,
2013-07-05 20:53:00,79.0,60.0,-100.00,SSW,202,7.0,-999.0,51,-99.99,,,-99.99,194.880005,,2013-07-06 00:53:00,
2013-07-05 21:00:00,77.0,60.0,-100.00,SSW,202,5.0,-999.0,56,-99.99,,,-99.99,63.799999,,2013-07-06 01:00:00,
2013-07-05 21:43:00,77.0,60.0,-100.00,SSW,202,5.0,-999.0,56,-99.99,,,-99.99,63.799999,,2013-07-06 01:43:00,
2013-07-05 21:53:00,77.0,60.0,-100.00,SSW,202,5.0,-999.0,56,-99.99,,,-99.99,63.799999,,2013-07-06 01:53:00,
2013-07-05 22:00:00,71.0,62.0,-100.00,West,270,1.0,-999.0,71,-99.99,,,-99.99,4.640000,,2013-07-06 02:00:00,
2013-07-05 22:43:00,71.0,62.0,-100.00,West,270,1.0,-999.0,71,-99.99,,,-99.99,4.640000,,2013-07-06 02:43:00,
2013-07-05 22:53:00,71.0,62.0,-100.00,West,270,1.0,-999.0,71,-99.99,,,-99.99,4.640000,,2013-07-06 02:53:00,
2013-07-05 23:00:00,66.0,60.0,-100.00,WNW,292,1.0,-999.0,80,-99.99,,,-99.99,0.000000,,2013-07-06 03:00:00,
2013-07-05 23:43:00,66.0,60.0,-100.00,WNW,292,1.0,-999.0,80,-99.99,,,-99.99,0.000000,,2013-07-06 03:43:00,
2013-07-05 23:53:00,66.0,60.0,-100.00,WNW,292,1.0,-999.0,80,-99.99,,,-99.99,0.000000,,2013-07-06 03:53:00,